Location: Les Bonis
(44.5167°N, 6.7667°E)
Time: 01:43:14
(UTC+00:00)

Daily predictions for brighter satellites

Satellite Brightness Start Highest point End
(mag) Time Altitude Azimuth Time Altitude Azimuth Time Altitude Azimuth
Cosmos 2344 4.3 02:53:31 45° ENE 02:53:31 45° ENE 02:59:07 10° NE
USA 215 4.1 03:19:50 10° E 03:25:43 41° NNE 03:25:43 41° NNE
Cosmos 2369 Rocket 4.3 03:32:41 10° SSE 03:37:03 24° ESE 03:41:25 10° NE
Cosmos 1867 4.2 03:50:14 52° ESE 03:50:14 52° ESE 03:54:26 10° SE
Tsikada Rocket 4.5 03:45:43 10° S 03:51:44 58° E 03:57:53 10° NNE
Gblst 52 Del rocket 4.5 03:54:35 69° NE 03:54:35 69° NE 04:00:27 10° ENE
Cosmos 1943 Rocket 2.2 04:06:38 73° NNE 04:06:38 73° NNE 04:11:44 10° NNE
CZ-2C R/B 3.7 04:03:10 10° SE 04:08:19 43° ENE 04:13:23 10° N
Cosmos 2082 Rocket 4.5 04:15:38 11° SSW 04:15:38 11° SSW 04:15:47 10° SSW
Cosmos 1241 Rocket 4.3 04:10:32 66° NNW 04:11:28 85° ENE 04:17:40 10° SE
SL-8 R/B 4.2 04:16:23 52° NNE 04:16:23 52° NNE 04:20:34 10° E
CENTAUR R/B 2.3 04:16:08 69° WNW 04:16:29 71° NW 04:23:34 10° NE
Cosmos 2297 3.6 04:21:06 70° NW 04:21:06 70° NW 04:26:43 10° NNE
NOSS 3-2 (A) 3.6 04:27:50 49° NW 04:27:50 49° NW 04:33:56 10° NNE
Cosmos 2278 Rocket 4.3 04:33:50 12° N 04:33:50 12° N 04:34:37 10° N
NOSS 3-2 (C) 3.2 04:33:35 51° WSW 04:35:01 71° NW 04:41:28 10° NE
SKYMED 2 3.8 04:30:47 10° SSE 04:35:04 67° ENE 04:37:12 29° N
Envisat 3.2 04:31:14 10° NNE 04:36:20 73° ESE 04:41:24 10° S
Cosmos 2098 Rocket 3.3 04:37:22 10° S 04:41:04 63° E 04:45:47 10° NNE
Meteor 2-3 Rocket 3.7 04:36:07 10° SSW 04:41:40 60° WNW 04:47:21 10° N
Landsat 5 4.0 04:40:15 10° SSE 04:44:43 66° ENE 04:48:26 15° N
Cosmos 968 Rocket 3.3 04:42:38 31° SW 04:45:04 66° WNW 04:50:12 10° NNE
Meteor 2-13 Rocket 4.3 04:40:00 10° S 04:46:07 83° W 04:52:14 10° N
CZ-4B R/B 4.2 04:44:22 10° NNE 04:48:49 77° E 04:53:17 10° S
Genesis I 3.3 04:49:24 60° SW 04:49:24 60° SW 04:53:20 10° SSE
Cosmos 921 Rocket 2.9 04:50:35 47° NW 04:51:45 73° WSW 04:56:11 10° S
Okean 3 Rocket 4.1 04:48:14 10° S 04:52:42 63° E 04:57:12 10° NNE
H-2A R/B 4.1 04:51:58 10° ESE 04:55:31 27° ENE 04:59:10 10° N
DNEPR-1 R/B 4.2 04:53:15 27° NNW 04:55:53 65° NE 05:01:31 10° SE
Meteor 1-26 Rocket 4.4 04:53:50 20° NNW 04:57:47 51° W 05:03:20 10° SSW
Cosmos 1812 2.5 04:56:57 42° NNW 04:58:09 75° W 05:01:58 10° S
CBERS 1 LM4 rocket 4.3 04:54:40 10° NNE 04:59:32 85° WNW 05:04:34 10° SSW
ADEOS 4.1 04:54:40 10° NNE 04:59:52 61° ESE 05:05:01 10° S
Gbstr 26 Del rocket 4.3 05:01:04 21° SW 05:01:04 21° SW 05:03:59 10° S
USA 238 DEB 3.8 05:00:10 29° W 05:03:17 48° NW 05:09:56 10° NNE
USA 238 3.8 05:00:14 28° W 05:03:22 48° NW 05:10:03 10° NNE
Cosmos 2142 Rocket 4.5 04:58:33 10° N 05:04:55 85° W 05:11:18 10° S
Cosmos 1151 Rocket 2.9 05:01:35 16° NNW 05:05:01 74° W 05:09:23 10° S
Cosmos 1766 Rocket 3.4 05:01:32 10° S 05:05:53 84° W 05:10:14 10° N
Cosmos 2344 4.1 05:03:34 28° WNW 05:06:30 37° NW 05:13:56 10° NNE
Cosmos 2263 4.2 05:01:06 10° SSW 05:06:47 90° ESE 05:12:34 10° NNE
CZ-2C R/B 4.0 05:03:07 10° NNE 05:07:49 47° E 05:12:41 10° S
USA 215 3.2 05:01:59 10° SE 05:08:31 85° SW 05:13:03 22° NW
Meteor 1-31 Rocket 2.8 05:10:53 10° N 05:14:42 55° WNW 05:18:31 10° SSW
Cosmos 1782 4.1 05:15:55 23° WSW 05:15:55 23° WSW 05:18:06 10° SSW
Cosmos 2279 Rocket 3.9 05:09:29 10° NNW 05:15:40 74° W 05:21:50 10° S
IRAS Rocket 4.4 05:11:20 10° SSE 05:16:50 76° ENE 05:22:20 10° NNW
BREEZE-M DEB (TANK) 4.1 05:02:59 10° SW 05:17:25 62° SSE 05:21:16 10° ENE
Cosmos 1328 Rocket 3.4 05:13:18 10° NNW 05:17:42 77° W 05:22:02 10° S
SJ-12 4.4 05:16:15 10° N 05:20:04 36° WNW 05:23:52 10° SW
Cosmos 2369 Rocket 2.3 05:15:14 10° SW 05:20:40 53° WNW 05:26:10 10° NNE
FALCON 9 DEB 4.1 05:21:07 29° NW 05:21:31 30° NNW 05:24:34 10° NE
Cosmos 1862 3.3 05:18:20 10° SSW 05:22:12 55° W 05:26:06 10° N
COSMO-SKYMED 1 3.1 05:19:11 10° SSW 05:23:12 37° W 05:25:48 19° NW
Nadezhda 4 Rocket 4.4 05:19:11 10° S 05:25:15 66° E 05:31:25 10° NNE
H-2A R/B 3.6 05:24:51 10° NNW 05:28:00 27° WNW 05:31:12 10° SW
Cosmos 1634 Rocket 4.5 05:24:53 10° NNW 05:30:32 36° W 05:36:08 10° SSW
H-2A R/B 4.4 05:30:44 10° NE 05:34:43 24° E 05:38:43 10° SSE
CZ-4B R/B 2.5 05:33:55 10° NNE 05:37:30 86° ESE 05:41:05 10° SSW
CZ-4B R/B 3.2 05:36:12 10° SE 05:39:12 32° ENE 05:42:11 10° N
Cosmos 1408 Rocket 3.4 05:36:58 10° SSW 05:41:16 75° W 05:45:35 10° N
Cosmos 783 Rocket 4.4 05:38:44 10° NNW 05:43:58 84° WSW 05:49:09 10° SSE
CZ-4C R/B 3.7 05:41:27 10° SSW 05:44:13 28° W 05:46:01 17° NW
Cosmos 1656 Rocket 3.8 05:39:12 10° SW 05:44:22 46° WNW 05:49:38 10° NNE
DMSP B5D2-2 4.0 05:39:21 10° S 05:44:32 69° WSW 05:49:45 10° NNW
Cosmos 1503 Rocket 4.1 05:39:31 10° SW 05:44:42 58° WNW 05:49:59 10° NNE
Cosmos 1743 Rocket 3.9 05:44:15 10° S 05:48:36 69° E 05:52:58 10° NNE
CZ-2C R/B 3.6 05:44:04 10° SSW 05:48:43 28° W 05:53:19 10° NW
Cosmos 1943 Rocket 3.6 05:48:15 14° WNW 05:50:36 18° NW 05:54:23 10° N
FAST Rocket 4.2 05:48:19 10° S 05:50:54 70° E 05:53:48 10° NNE
Cosmos 2227 Rocket 4.4 05:47:39 10° N 05:51:29 18° NE 05:55:18 10° E
Cosmos 1777 Rocket 4.1 05:51:11 10° SSW 05:56:23 85° ESE 06:01:39 10° NNE
Cosmos 1515 Rocket 3.7 05:53:44 10° NNW 05:57:59 52° W 06:02:11 10° S
SL-8 R/B 3.7 05:54:22 13° WNW 05:58:36 77° SSW 06:03:22 10° ESE
Cosmos 1602 4.5 05:57:20 10° S 06:01:03 56° E 06:04:48 10° NNE
Meteor 1-27 Rocket 3.7 05:55:28 10° NNW 06:01:05 71° W 06:06:47 10° S
NOAA 6 4.2 05:57:57 10° NNE 06:03:06 80° ESE 06:08:13 10° SSW
COSMOS 2487 3.5 06:01:54 10° N 06:05:08 43° ENE 06:08:21 10° SE
Cosmos 773 Rocket 4.1 06:00:25 10° NNW 06:05:35 61° WSW 06:10:40 10° S
SJ 16-02 1.3 06:01:35 10° SSW 06:05:58 84° WNW 06:10:22 10° NNE
CENTAUR R/B 3.8 06:03:26 10° WNW 06:08:36 24° NNW 06:14:30 10° NNE
CZ-3 R/B 4.2 06:10:57 10° S 06:11:17 10° S 06:11:37 10° S
Alouette 2 Rocket 3.1 06:07:36 10° NNW 06:11:27 80° W 06:15:00 10° S
Cosmos 1340 Rocket 2.8 06:10:13 10° SSW 06:14:06 61° WNW 06:18:04 10° N
NOAA 12 4.2 06:09:03 10° N 06:14:11 54° WNW 06:19:17 10° SSW
Envisat 4.4 06:11:39 10° NNW 06:14:46 17° WNW 06:17:51 10° W
Cosmos 1500 Rocket 3.7 06:13:09 10° SSW 06:17:31 55° WNW 06:21:56 10° N
SL-27 R/B 3.0 06:15:21 10° NW 06:18:45 40° WSW 06:22:04 10° S
Cosmos 1939 Rocket 3.2 06:17:00 10° N 06:20:45 42° WNW 06:24:25 10° SW
DELTA 2 R/B (1) 4.3 06:16:15 10° WSW 06:21:37 52° S 06:26:59 10° ESE
FALCON 9 R/B 4.5 06:21:12 10° W 06:35:47 32° SW 06:41:04 10° SSE
